| time (UTC) | temp F | wind direction | speed MPH | gust MPH | rain 1hr in | rain 24hr in | rain mn in | humidity % | barometer mb |
| 20260904183530 | 99 | 297 | 1.0 | 4.0 | 0.00 | 0.00 | 0.00 | 55 | 1015.4 |
| 20260904182526 | 98 | 297 | 1.0 | 3.0 | 0.00 | 0.00 | 0.00 | 56 | 1015.6 |
| 20260904181522 | 97 | 297 | 1.0 | 4.0 | 0.00 | 0.00 | 0.00 | 57 | 1015.7 |
| 20260904180518 | 95 | 297 | 1.0 | 2.0 | 0.00 | 0.00 | 0.00 | 59 | 1015.9 |
| 20260904175534 | 94 | 297 | 0.0 | 1.0 | 0.00 | 0.00 | 0.00 | 58 | 1016.0 |
| 20260904174530 | 96 | 297 | 1.0 | 6.0 | 0.00 | 0.00 | 0.00 | 58 | 1016.2 |
| 20260904173526 | 96 | 297 | 2.0 | 7.0 | 0.00 | 0.00 | 0.00 | 58 | 1016.1 |
| 20260904172522 | 95 | 296 | 1.0 | 4.0 | 0.00 | 0.00 | 0.00 | 59 | 1016.3 |
| 20260904171518 | 96 | 296 | 0.0 | 2.0 | 0.00 | 0.00 | 0.00 | 59 | 1016.4 |
| 20260904170534 | 94 | 296 | 1.0 | 3.0 | 0.00 | 0.00 | 0.00 | 61 | 1016.6 |
| 20260904165530 | 93 | 296 | 1.0 | 3.0 | 0.00 | 0.00 | 0.00 | 60 | 1016.9 |
| 20260904164525 | 93 | 296 | 1.0 | 6.0 | 0.00 | 0.00 | 0.00 | 61 | 1016.7 |
| 20260904163541 | 93 | 296 | 1.0 | 3.0 | 0.00 | 0.00 | 0.00 | 62 | 1017.0 |
| 20260904162537 | 92 | 296 | 1.0 | 3.0 | 0.00 | 0.00 | 0.00 | 62 | 1017.0 |
| 20260904161533 | 92 | 296 | 1.0 | 3.0 | 0.00 | 0.00 | 0.00 | 63 | 1017.1 |
| 20260904160529 | 92 | 296 | 0.0 | 2.0 | 0.00 | 0.00 | 0.00 | 62 | 1017.1 |
| 20260904155525 | 93 | 296 | 1.0 | 2.0 | 0.00 | 0.00 | 0.00 | 62 | 1017.1 |
| 20260904154521 | 92 | 296 | 1.0 | 3.0 | 0.00 | 0.00 | 0.00 | 65 | 1017.1 |
| 20260904153517 | 92 | 296 | 0.0 | 2.0 | 0.00 | 0.00 | 0.00 | 65 | 1017.1 |
| 20260904152533 | 91 | 296 | 1.0 | 3.0 | 0.00 | 0.00 | 0.00 | 66 | 1017.1 |
| 20260904151549 | 90 | 296 | 0.0 | 1.0 | 0.00 | 0.00 | 0.00 | 66 | 1017.1 |
| 20260904150545 | 90 | 296 | 1.0 | 2.0 | 0.00 | 0.00 | 0.00 | 69 | 1017.0 |
| 20260904145521 | 90 | 296 | 1.0 | 3.0 | 0.00 | 0.00 | 0.00 | 69 | 1017.0 |
| 20260904144517 | 89 | 296 | 1.0 | 2.0 | 0.00 | 0.00 | 0.00 | 70 | 1016.9 |
| 20260904143533 | 88 | 296 | 1.0 | 4.0 | 0.00 | 0.00 | 0.00 | 70 | 1016.8 |
| 20260904142529 | 88 | 296 | 1.0 | 3.0 | 0.00 | 0.00 | 0.00 | 72 | 1016.9 |
| 20260904141545 | 87 | 296 | 0.0 | 2.0 | 0.00 | 0.00 | 0.00 | 74 | 1016.9 |
| 20260904140541 | 86 | 296 | 0.0 | 1.0 | 0.00 | 0.00 | 0.00 | 75 | 1016.9 |
| 20260904135518 | 85 | 296 | 0.0 | 2.0 | 0.00 | 0.00 | 0.00 | 77 | 1016.7 |
| 20260904134534 | 84 | 297 | 0.0 | 1.0 | 0.00 | 0.00 | 0.00 | 80 | 1016.7 |
| 20260904133550 | 83 | 297 | 1.0 | 2.0 | 0.00 | 0.00 | 0.00 | 82 | 1016.7 |
| 20260904132526 | 82 | 297 | 1.0 | 2.0 | 0.00 | 0.00 | 0.00 | 84 | 1016.9 |
| 20260904131522 | 81 | 297 | 0.0 | 2.0 | 0.00 | 0.00 | 0.00 | 86 | 1016.8 |
| 20260904130518 | 80 | 297 | 0.0 | 1.0 | 0.00 | 0.00 | 0.00 | 88 | 1016.8 |
| 20260904125534 | 79 | 297 | 0.0 | 1.0 | 0.00 | 0.00 | 0.00 | 90 | 1016.7 |
| 20260904124530 | 78 | 0.0 | 0.0 | 0.00 | 0.00 | 0.00 | 91 | 1016.7 | |
| 20260904123526 | 77 | 0.0 | 0.0 | 0.00 | 0.00 | 0.00 | 92 | 1016.7 | |
| 20260904122522 | 76 | 0.0 | 0.0 | 0.00 | 0.00 | 0.00 | 93 | 1016.5 | |
| 20260904121518 | 76 | 0.0 | 0.0 | 0.00 | 0.00 | 0.00 | 93 | 1016.4 | |
| 20260904120534 | 76 | 0.0 | 0.0 | 0.00 | 0.00 | 0.00 | 92 | 1016.4 | |
| 20260904115530 | 75 | 0.0 | 0.0 | 0.00 | 0.00 | 0.00 | 92 | 1016.3 | |
| 20260904114546 | 75 | 0.0 | 0.0 | 0.00 | 0.00 | 0.00 | 92 | 1016.2 | |
| 20260904113522 | 75 | 0.0 | 0.0 | 0.00 | 0.00 | 0.00 | 92 | 1016.2 | |
| 20260904112518 | 75 | 0.0 | 0.0 | 0.00 | 0.00 | 0.00 | 92 | 1016.2 | |
| 20260904111534 | 75 | 0.0 | 0.0 | 0.00 | 0.00 | 0.00 | 91 | 1016.1 | |
| 20260904110531 | 75 | 0.0 | 0.0 | 0.00 | 0.00 | 0.00 | 91 | 1015.9 | |
| 20260904105526 | 76 | 0.0 | 0.0 | 0.00 | 0.00 | 0.00 | 91 | 1015.8 | |
| 20260904104542 | 76 | 0.0 | 0.0 | 0.00 | 0.00 | 0.00 | 91 | 1015.7 | |
| 20260904103518 | 76 | 0.0 | 0.0 | 0.00 | 0.00 | 0.00 | 91 | 1015.6 | |
| 20260904102555 | 76 | 0.0 | 0.0 | 0.00 | 0.00 | 0.00 | 90 | 1015.6 | |
| 20260904101531 | 76 | 297 | 0.0 | 1.0 | 0.00 | 0.00 | 0.00 | 90 | 1015.5 |
| 20260904100527 | 76 | 0.0 | 0.0 | 0.00 | 0.00 | 0.00 | 90 | 1015.3 | |
| 20260904095523 | 76 | 0.0 | 0.0 | 0.00 | 0.00 | 0.00 | 90 | 1015.4 | |
| 20260904094539 | 76 | 0.0 | 0.0 | 0.00 | 0.00 | 0.00 | 89 | 1015.3 | |
| 20260904093535 | 76 | 0.0 | 0.0 | 0.00 | 0.00 | 0.00 | 89 | 1015.2 | |
| 20260904092551 | 76 | 0.0 | 0.0 | 0.00 | 0.00 | 0.00 | 89 | 1015.1 | |
| 20260904091527 | 77 | 0.0 | 0.0 | 0.00 | 0.00 | 0.00 | 88 | 1015.2 | |
| 20260904090523 | 77 | 0.0 | 0.0 | 0.00 | 0.00 | 0.00 | 88 | 1015.2 | |
| 20260904085519 | 77 | 297 | 0.0 | 1.0 | 0.00 | 0.00 | 0.00 | 88 | 1015.0 |
| 20260904084555 | 77 | 297 | 0.0 | 1.0 | 0.00 | 0.00 | 0.00 | 87 | 1015.0 |
| 20260904083531 | 77 | 297 | 0.0 | 1.0 | 0.00 | 0.00 | 0.00 | 87 | 1015.1 |
| 20260904082527 | 77 | 0.0 | 0.0 | 0.00 | 0.00 | 0.00 | 88 | 1015.0 | |
| 20260904081543 | 77 | 297 | 0.0 | 1.0 | 0.00 | 0.00 | 0.00 | 87 | 1015.0 |
| 20260904080519 | 77 | 0.0 | 0.0 | 0.00 | 0.00 | 0.00 | 87 | 1014.9 | |
| 20260904075535 | 78 | 297 | 0.0 | 1.0 | 0.00 | 0.00 | 0.00 | 87 | 1014.9 |
| 20260904074531 | 78 | 297 | 0.0 | 1.0 | 0.00 | 0.00 | 0.00 | 87 | 1014.9 |
| 20260904073547 | 78 | 297 | 0.0 | 1.0 | 0.00 | 0.00 | 0.00 | 87 | 1014.8 |
| 20260904071519 | 78 | 297 | 0.0 | 1.0 | 0.00 | 0.00 | 0.00 | 86 | 1015.0 |
| 20260904070534 | 78 | 297 | 0.0 | 1.0 | 0.00 | 0.00 | 0.00 | 85 | 1015.0 |
| 20260904065531 | 78 | 297 | 0.0 | 1.0 | 0.00 | 0.00 | 0.00 | 85 | 1015.2 |
| 20260904064527 | 78 | 297 | 0.0 | 1.0 | 0.00 | 0.00 | 0.00 | 85 | 1015.2 |
| 20260904063523 | 78 | 0.0 | 0.0 | 0.00 | 0.00 | 0.00 | 84 | 1015.2 | |
| 20260904062519 | 79 | 297 | 0.0 | 1.0 | 0.00 | 0.00 | 0.00 | 84 | 1015.2 |
| 20260904061555 | 79 | 0.0 | 0.0 | 0.00 | 0.00 | 0.00 | 83 | 1015.2 | |
| 20260904060531 | 79 | 0.0 | 0.0 | 0.00 | 0.00 | 0.00 | 83 | 1015.2 | |
| 20260904055527 | 79 | 297 | 0.0 | 1.0 | 0.00 | 0.00 | 0.00 | 82 | 1015.4 |
| 20260904054523 | 79 | 297 | 0.0 | 1.0 | 0.00 | 0.00 | 0.00 | 82 | 1015.3 |
| 20260904053519 | 80 | 0.0 | 0.0 | 0.00 | 0.00 | 0.00 | 82 | 1015.4 | |
| 20260904052535 | 80 | 297 | 0.0 | 1.0 | 0.00 | 0.00 | 0.00 | 81 | 1015.4 |
| 20260904051551 | 80 | 297 | 0.0 | 1.0 | 0.00 | 0.00 | 0.00 | 81 | 1015.4 |
| 20260904050527 | 80 | 0.0 | 0.0 | 0.00 | 0.00 | 0.00 | 80 | 1015.5 | |
| 20260904045523 | 80 | 0.0 | 0.0 | 0.00 | 0.00 | 0.00 | 80 | 1015.4 | |
| 20260904044519 | 81 | 297 | 0.0 | 1.0 | 0.00 | 0.00 | 0.00 | 80 | 1015.4 |
| 20260904043535 | 81 | 297 | 0.0 | 1.0 | 0.00 | 0.00 | 0.00 | 79 | 1015.5 |
| 20260904042551 | 81 | 297 | 0.0 | 1.0 | 0.00 | 0.00 | 0.00 | 79 | 1015.5 |
| 20260904041547 | 81 | 297 | 0.0 | 1.0 | 0.00 | 0.00 | 0.00 | 78 | 1015.5 |
| 20260904040543 | 81 | 297 | 0.0 | 1.0 | 0.00 | 0.00 | 0.00 | 78 | 1015.6 |
| 20260904035519 | 82 | 0.0 | 0.0 | 0.00 | 0.00 | 0.00 | 77 | 1015.6 | |
| 20260904034535 | 82 | 297 | 0.0 | 1.0 | 0.00 | 0.00 | 0.00 | 76 | 1015.7 |
| 20260904033551 | 83 | 297 | 0.0 | 1.0 | 0.00 | 0.00 | 0.00 | 76 | 1015.9 |
| 20260904032527 | 83 | 297 | 0.0 | 1.0 | 0.00 | 0.00 | 0.00 | 76 | 1015.8 |
| 20260904031543 | 83 | 297 | 0.0 | 1.0 | 0.00 | 0.00 | 0.00 | 75 | 1016.0 |
| 20260904030518 | 83 | 0.0 | 0.0 | 0.00 | 0.00 | 0.00 | 75 | 1015.9 | |
| 20260904025535 | 84 | 297 | 0.0 | 1.0 | 0.00 | 0.00 | 0.00 | 74 | 1015.9 |
| 20260904024551 | 84 | 297 | 0.0 | 1.0 | 0.00 | 0.00 | 0.00 | 73 | 1015.9 |
| 20260904023527 | 84 | 297 | 1.0 | 1.0 | 0.00 | 0.00 | 0.00 | 73 | 1015.9 |
| 20260904022523 | 85 | 297 | 0.0 | 1.0 | 0.00 | 0.00 | 0.00 | 72 | 1015.9 |
| 20260904021519 | 85 | 297 | 0.0 | 1.0 | 0.00 | 0.00 | 0.00 | 71 | 1015.7 |
| 20260904020535 | 86 | 297 | 0.0 | 1.0 | 0.00 | 0.00 | 0.00 | 70 | 1015.7 |
| 20260904015530 | 86 | 0.0 | 0.0 | 0.00 | 0.00 | 0.00 | 69 | 1015.5 | |
| 20260904014526 | 87 | 297 | 0.0 | 1.0 | 0.00 | 0.00 | 0.00 | 68 | 1015.3 |
| 20260904013521 | 87 | 0.0 | 0.0 | 0.00 | 0.00 | 0.00 | 67 | 1015.3 | |
| 20260904012517 | 88 | 0.0 | 0.0 | 0.00 | 0.00 | 0.00 | 67 | 1015.2 | |
| 20260904011533 | 88 | 297 | 0.0 | 1.0 | 0.00 | 0.00 | 0.00 | 67 | 1015.2 |
| 20260904010549 | 88 | 0.0 | 0.0 | 0.00 | 0.00 | 0.00 | 67 | 1015.0 | |
| 20260904005525 | 88 | 297 | 1.0 | 1.0 | 0.00 | 0.00 | 0.00 | 66 | 1014.9 |
| 20260904004521 | 89 | 297 | 0.0 | 1.0 | 0.00 | 0.00 | 0.00 | 65 | 1014.9 |
| 20260904003517 | 89 | 297 | 0.0 | 1.0 | 0.00 | 0.00 | 0.00 | 65 | 1014.7 |
| 20260904002533 | 90 | 297 | 1.0 | 2.0 | 0.00 | 0.00 | 0.00 | 65 | 1014.5 |
| 20260904001529 | 91 | 297 | 1.0 | 1.0 | 0.00 | 0.00 | 0.00 | 63 | 1014.5 |
| 20260904000526 | 92 | 297 | 1.0 | 1.0 | 0.00 | 0.00 | 0.00 | 61 | 1014.4 |
| 20260903235521 | 93 | 297 | 0.0 | 1.0 | 0.00 | 0.00 | 0.00 | 59 | 1014.4 |
| 20260903234517 | 93 | 297 | 1.0 | 3.0 | 0.00 | 0.00 | 0.00 | 59 | 1014.4 |
| 20260903233532 | 94 | 297 | 0.0 | 1.0 | 0.00 | 0.00 | 0.00 | 59 | 1014.3 |
| 20260903232528 | 94 | 297 | 0.0 | 1.0 | 0.00 | 0.00 | 0.00 | 57 | 1014.3 |
| 20260903231523 | 95 | 297 | 1.0 | 2.0 | 0.00 | 0.00 | 0.00 | 56 | 1014.4 |
| 20260903230519 | 95 | 297 | 1.0 | 2.0 | 0.00 | 0.00 | 0.00 | 56 | 1014.3 |
| 20260903225535 | 96 | 297 | 0.0 | 1.0 | 0.00 | 0.00 | 0.00 | 58 | 1014.3 |
| 20260903224531 | 96 | 297 | 1.0 | 2.0 | 0.00 | 0.00 | 0.00 | 58 | 1014.3 |
| 20260903223527 | 97 | 297 | 1.0 | 3.0 | 0.00 | 0.00 | 0.00 | 57 | 1014.1 |
| 20260903222603 | 96 | 297 | 1.0 | 2.0 | 0.00 | 0.00 | 0.00 | 58 | 1014.1 |
| 20260903221518 | 96 | 297 | 0.0 | 1.0 | 0.00 | 0.00 | 0.00 | 59 | 1014.3 |
| 20260903220535 | 96 | 297 | 0.0 | 2.0 | 0.00 | 0.00 | 0.00 | 59 | 1014.1 |
| 20260903215530 | 95 | 297 | 1.0 | 2.0 | 0.00 | 0.00 | 0.00 | 60 | 1014.0 |
| 20260903214526 | 95 | 297 | 1.0 | 2.0 | 0.00 | 0.00 | 0.00 | 60 | 1013.9 |
| 20260903213522 | 94 | 297 | 0.0 | 1.0 | 0.00 | 0.00 | 0.00 | 59 | 1014.2 |
| 20260903212518 | 94 | 297 | 1.0 | 1.0 | 0.00 | 0.00 | 0.00 | 57 | 1014.2 |
| 20260903211534 | 96 | 297 | 2.0 | 4.0 | 0.00 | 0.00 | 0.00 | 57 | 1014.3 |
| 20260903210530 | 98 | 209 | 1.0 | 3.0 | 0.00 | 0.00 | 0.00 | 54 | 1014.2 |
| 20260903205526 | 100 | 201 | 1.0 | 3.0 | 0.00 | 0.00 | 0.00 | 54 | 1014.4 |
| 20260903204522 | 100 | 201 | 1.0 | 2.0 | 0.00 | 0.00 | 0.00 | 53 | 1014.4 |
| 20260903203518 | 99 | 201 | 1.0 | 2.0 | 0.00 | 0.00 | 0.00 | 56 | 1014.4 |
| 20260903202534 | 98 | 90 | 1.0 | 4.0 | 0.00 | 0.00 | 0.00 | 57 | 1014.6 |
| 20260903201550 | 97 | 35 | 1.0 | 3.0 | 0.00 | 0.00 | 0.00 | 57 | 1014.9 |
| 20260903200546 | 96 | 35 | 1.0 | 2.0 | 0.00 | 0.00 | 0.00 | 56 | 1015.0 |
| 20260903195522 | 97 | 35 | 1.0 | 3.0 | 0.00 | 0.00 | 0.00 | 56 | 1015.0 |
| 20260903194518 | 99 | 35 | 1.0 | 2.0 | 0.00 | 0.00 | 0.00 | 55 | 1015.2 |
| 20260903193534 | 100 | 35 | 1.0 | 3.0 | 0.00 | 0.00 | 0.00 | 55 | 1015.1 |
| 20260903192530 | 100 | 35 | 1.0 | 2.0 | 0.00 | 0.00 | 0.00 | 56 | 1015.3 |
| 20260903191526 | 98 | 35 | 1.0 | 2.0 | 0.00 | 0.00 | 0.00 | 57 | 1015.5 |
| 20260903190522 | 98 | 35 | 2.0 | 3.0 | 0.00 | 0.00 | 0.00 | 57 | 1015.6 |
| 20260903185518 | 98 | 43 | 1.0 | 3.0 | 0.00 | 0.00 | 0.00 | 60 | 1015.8 |
| 20260903184534 | 97 | 55 | 1.0 | 3.0 | 0.00 | 0.00 | 0.00 | 61 | 1015.9 |